Torna al catalogo

STARLINK-34022

AttivoComunicazioniVLEO
NORAD 63866·PAYLOAD·🇺🇸 United States

Lanciato May 10, 2025 da Vandenberg Space Force Base

Loading…

Prossimi Passaggi (prossime 24 ore)

TLE

AggiornatoSource: CelesTrak SupGP

Epoca: Sep 14, 2026, 20:51 UTC

1 63866C 25094C   26257.86923611 -.00021689  00000+0 -75464-3 0  2570
2 63866  69.9990 115.7571 0003181 269.8303  81.3635 15.29583109    14

Traccia STARLINK-34022 in tempo reale con AllMySat

Download on the App Store